METEOR 2-17 DEB

Satellite information

Favourite Embed

Satellite Type and Status

DEBRISIN ORBIT

Key statistics

Satellite METEOR 2-17 DEB at a glance.

Uptime

13674

Days in orbit

Revolutions

≈ 14.0

Per day

Orbit

LEO

Low Earth Orbit

Inclination

82.5

Latest

Satellite identification and parameters

Extended collection of information and parameters for METEOR 2-17 DEB.

Object identification

Identified? True

Debris? True

Object name: METEOR 2-17 DEB

International designator: 1988-005C

Object number (NORAD): 28988

Object ID (CCSDS): 28988

Country: COMMONWEALTH OF INDEPENDENT STATES (CIS)

Current information (Y/N): Y

RCS size: SMALL

Orbital parameters

Period: 102.821 minutes

Inclination: 82.5344 deg

SMA: 7270.238 km

Apoapsis: 900.036 km

Periapsis: 884.169 km

RAAN: 188.8343 deg

Eccentricy: 0.0010912

Argument of periapsis: 126.6658 deg

Mean anomaly: 233.5516 deg

Mean motion: 14.00489499 rev/day

Mean motion (dot): 0.0000167 rev/day2

B* drag term: 0.0011151 1/REarth

Two-line elements (TLE)

Creation date: July 7, 2025, 5:18 a.m.

Reference frame: TEME

Reference center: EARTH

Epoch: July 6, 2025, 5:34 p.m. UTC

TLE line 0: 0 METEOR 2-17 DEB

TLE line 1: 1 28988U 88005C 25187.73258448 .00001670 00000-0 11151-2 0 9995

TLE line 2: 2 28988 82.5344 188.8343 0010912 126.6658 233.5516 14.00489499565149

Live tracking on map

Real-time ground track for satellite METEOR 2-17 DEB.

In-orbit conjunctions

A list of the most updated potential collisions computed for object METEOR 2-17 DEB.

Target Orbit TCA Probability of collision Miss distance Type
FENGYUN 1C DEB SSO 2025-03-17 11:31:32 0.0003261965 72.0 (m) DEBRIS
FENGYUN 1C DEB SSO 2025-03-04 19:18:34 0.0001018093 311.0 (m) DEBRIS

Associated space launch

Second generation soviet meteorological satellite

METEOR 2-17 DEB was lifted into orbit during the mission ‘Tsiklon-3 | Meteor-2 17’, on board a Tsiklon-3 space rocket.

The launch took place on Jan. 30, 1988, 10:59 a.m. from 32/1.

For more information about the launch, click the button.

Launch to space Tsiklon-3 | Meteor-2 17
Tsiklon-3 | Meteor-2 17

Agency: N/A

Status: Launch Successful

Launch date: Jan. 30, 1988, 10:59 a.m. UTC

Rocket: Tsiklon-3

Launch pad: 32/1

Location: Plesetsk Cosmodrome, Russian Federation

...

Latest news about this satellite

There are no fresh news available about this satellite. Check back as we update our databases every day.


Newsletter sign-up

Weekly statistics, charts and insights to help you stay on top of the space industry.